Preview of NWS' New Version of Forecast
This preview is not operational and should not be used for support decisions.

Regional Weather Roundup (RWR)

Issued by National Weather Service (NWS)

                            
000
ASUS44 KMEG 161910
RWRTN 
TENNESSEE HOURLY STATE WEATHER ROUNDUP
NATIONAL WEATHER SERVICE MEMPHIS TN
200 PM CDT MON SEP 16 2019

TNZ002-004-019-021-049-052-054-088>092-162000-
WEST TENNESSEE
  
CITY           SKY/WX    TMP DP  RH WIND       PRES   REMARKS
MEMPHIS INTL   FAIR      96  65  35 CALM      30.06F HX  98           
NWS MEMPHIS      N/A     98 N/A N/A MISG        N/A                   
JACKSON        FAIR      98  65  33 N8        30.07F HX 101           
DYERSBURG      FAIR      94  69  44 CALM      30.07F HX  99           
SOMERVILLE     PTSUNNY   93  64  38 NE3       30.05F HX  95           
UNION CITY     SUNNY     95  66  38 NE6       30.05F HX  98           
BOLIVAR        SUNNY     95  66  38 VRB6      30.06F HX  98           
PARIS          SUNNY     95  63  34 CALM      30.06F HX  96           
LEXINGTON      SUNNY     93  61  33 VRB3G12   30.05F HX  93           
SELMER         MOSUNNY   95  63  34 VRB5G12   30.06F HX  96           
SAVANNAH       SUNNY     95  63  34 VRB3      30.05F HX  96           
$$

TNZ008-025-027-028-033-062-065-066-162000-
NORTH MIDDLE TENNESSEE
  
CITY           SKY/WX    TMP DP  RH WIND       PRES   REMARKS
NASHVILLE      FAIR      97  60  29 N6        30.07F HX  97           
DICKSON        CLEAR     95  55  26 VRB3G14   30.07F HX  93           
PORTLAND       SUNNY     93  64  38 CALM      30.06F HX  95           
CLARKSVILLE    FAIR      94  64  37 MISG      30.06F HX  95           
LEBANON        CLEAR     93  64  38 NE7       30.04F HX  95           
SMYRNA         FAIR      96  64  34 NE9       30.07F HX  98           
MURFREESBORO   CLEAR     93  63  36 CALM      30.04F HX  94           
COOKEVILLE     SUNNY     93  59  31 VRB6G12   30.08F HX  92           
LIVINGSTON     CLEAR     90  61  37 VRB6      30.09F                  
CROSSVILLE     FAIR      88  59  37 VRB3      30.14F                  
ROCKWOOD       CLEAR     90  55  31 VRB7      30.11F                  
$$

TNZ061-075-076-078-094-096-097-162000-
SOUTH MIDDLE TENNESSEE
  
CITY           SKY/WX    TMP DP  RH WIND       PRES   REMARKS
LAWRENCEBURG   CLEAR     95  61  31 N12       30.07F HX  95           
LEWISBURG      PTCLDY    97  61  30 N8        30.05F HX  97           
FAYETTEVILLE   SUNNY     93  64  38 E6        30.07F HX  95           
TULLAHOMA      SUNNY     91  63  38 N5G14     30.08F HX  92           
WINCHESTER     MOSUNNY   93  61  33 CALM      30.07F HX  93           
MCMINNVILLE    MOSUNNY   93  61  33 VRB5G12   30.08F HX  93           
COLUMBIA       MOSUNNY   93  61  33 CALM      30.04F HX  93           
SHELBYVILLE    SUNNY     95  61  31 N5G18     30.07F HX  95           
$$

TNZ017-018-042-046-047-162000-
NORTHEAST TENNESSEE
  
CITY           SKY/WX    TMP DP  RH WIND       PRES   REMARKS
TRI CITIES     FAIR      90  56  31 CALM      30.09F                  
ELIZABETHTON   FAIR      90  54  29 VRB5G15   30.09F                  
GREENEVILLE    CLEAR     88  55  33 N7        30.10F                  
$$

TNZ012-013-036-069-073-074-162000-
CENTRAL EAST TENNESSEE
  
CITY           SKY/WX    TMP DP  RH WIND       PRES   REMARKS
KNOXVILLE      FAIR      92  57  30 NW8       30.07F HX  90           
OAK RIDGE        N/A     93  59  31 CALM      30.08F HX  92           
DOWNTOWN KNOXV SUNNY     93  63  36 CALM      30.06F HX  94           
GATLINBURG     SUNNY     93  57  29 VRB5      30.06F HX  92           
MORRISTOWN     SUNNY     90  57  33 N6        30.08F                  
JACKSBORO      SUNNY     91  61  35 VRB6      30.11F HX  91           
$$

TNZ083-085-099-162000-
SOUTHEAST TENNESSEE
  
CITY           SKY/WX    TMP DP  RH WIND       PRES   REMARKS
CHATTANOOGA    FAIR      96  59  29 NE7       30.05F HX  95           
DAYTON         CLEAR     95  55  26 VRB6      30.05F HX  93           
$$

SKY/WX REPORTED AS FAIR MEANS FEW OR NO CLOUDS BELOW
12 THOUSAND FEET.